Lid_Strength_Index
10 13 15 13 12 12 13 14 15 13 11 12 13 13 11 10 11 11 11 11 10 9 8 8 7 6 4 3 3 3 2 2 2 2 2 4 3 4 4 3 2 1 0 1
13 15 11 11 11 12 13 14 15 13 11 13 13 13 12 11 10 10 10 11 10 10 9 8 8 8 6 3 3 2 3 3 2 2 2 2 4 5 4 4 3 3 1 1
13 11 10 10 12 12 13 14 15 14 13 14 14 15 14 11 11 10 10 9 9 9 9 9 9 9 7 5 3 3 2 3 2 3 5 7 6 7 6 6 4 4 3 1
11 10 10 12 12 12 14 12 12 13 15 17 14 19 16 12 12 12 11 10 10 10 9 9 9 9 8 5 4 3 3 3 3 5 5 5 4 4 4 4 5 5 5 4
12 12 12 12 12 11 13 11 12 13 15 16 16 18 16 14 13 12 11 11 11 10 10 9 9 8 8 7 6 5 5 5 4 4 4 5 4 6 7 6 6 6 6 6
12 10 11 11 10 10 10 11 12 13 15 20 16 17 19 16 13 13 11 11 9 9 9 9 9 8 8 8 8 7 6 6 6 5 6 5 4 7 7 7 7 7 6 6
12 12 11 10 12 10 12 14 19 19 20 20 17 18 16 13 11 12 11 11 9 9 9 9 8 9 9 8 8 7 7 7 6 6 6 6 5 6 6 7 6 7 7 6
15 16 12 10 11 12 12 14 18 21 20 20 17 19 15 12 11 11 10 11 10 10 9 9 9 9 9 9 8 7 7 7 7 7 6 6 6 6 5 6 6 5 6 6
15 15 11 11 10 10 13 14 12 16 22 21 18 16 13 12 11 11 11 11 10 10 9 9 8 8 8 9 8 8 8 8 8 7 7 7 6 6 6 6 6 5 6 6
12 15 12 12 11 11 12 11 15 16 22 23 20 19 16 14 12 11 10 10 9 9 9 9 9 9 9 9 8 8 8 8 8 8 7 7 6 6 5 6 6 7 6 7
11 12 15 13 13 13 13 14 13 13 16 19 21 18 14 13 12 11 10 9 9 9 9 9 9 9 9 9 9 8 8 8 8 8 8 8 7 7 7 6 6 7 7 7
11 13 17 15 13 12 13 13 13 16 17 17 17 16 11 10 10 10 10 9 10 9 8 8 8 9 9 9 9 9 9 9 8 8 8 8 8 8 8 7 7 8 7 8
10 14 20 17 14 13 15 13 12 13 15 17 19 16 12 11 10 10 9 9 8 8 8 8 8 8 8 9 9 9 9 8 8 8 8 8 8 8 8 8 8 8 8 9
8 13 15 18 15 12 15 14 12 13 17 16 16 14 12 11 11 11 10 9 9 8 8 8 8 8 9 8 8 9 9 9 9 9 9 9 9 8 8 9 9 9 9 10
9 15 13 13 12 12 13 13 13 14 14 16 15 15 12 11 10 9 10 9 9 9 9 8 8 8 8 9 8 8 9 9 9 9 9 9 9 9 9 10 11 11 11 11
10 14 13 14 12 12 14 12 12 12 13 13 13 14 10 10 9 10 10 10 9 9 9 8 8 8 8 8 8 8 9 9 10 10 10 9 10 11 12 12 12 12 13 13
11 13 14 17 14 14 16 14 13 12 11 11 13 11 9 10 10 10 9 9 9 10 9 9 9 9 9 9 9 10 10 10 11 12 12 13 13 13 12 12 13 13 13 14
12 12 13 16 16 20 16 13 11 12 11 9 9 9 9 9 9 9 9 10 10 10 10 10 10 10 10 11 11 12 13 13 13 13 14 13 14 14 15 15 14 14 14 15
9 11 15 20 21 16 15 14 13 14 14 11 11 10 10 10 11 11 9 9 10 10 10 10 10 11 11 11 13 14 14 14 13 13 13 13 14 16 16 16 16 16 17 18
10 10 13 22 19 22 16 12 10 10 15 11 10 10 11 11 14 12 9 10 9 9 10 11 11 12 12 12 13 14 14 15 14 14 14 14 15 17 17 16 17 18 18 17
13 13 15 15 17 17 14 12 9 16 15 12 11 10 10 11 10 9 8 9 9 9 9 9 11 11 12 13 14 14 14 14 15 16 16 16 17 18 18 18 19 19 17 16
14 15 15 14 16 18 11 11 12 11 11 10 10 9 10 10 9 9 9 9 9 9 10 10 11 11 12 13 14 14 14 14 16 17 18 19 20 17 18 19 21 21 18 16
18 14 17 14 14 11 10 10 8 7 8 9 9 9 9 9 9 9 9 9 9 9 9 10 12 12 13 16 16 15 15 16 17 18 16 18 19 18 19 18 19 20 19 16
15 14 16 15 14 14 11 9 7 6 7 9 9 9 9 9 9 9 10 9 9 10 11 13 14 14 14 17 16 16 17 17 17 15 15 15 16 18 20 18 18 18 19 17
14 14 17 17 14 13 12 11 10 9 8 9 9 9 9 9 9 9 10 11 10 10 12 15 15 14 15 17 17 17 16 17 17 14 14 14 15 17 18 17 15 15 15 15
13 13 15 17 12 12 11 10 9 10 10 9 10 10 9 9 9 9 10 10 11 11 13 15 16 17 18 19 19 15 16 16 15 14 14 14 15 16 16 14 13 11 11 11